This is the latest recevied weather packets stored in our database for station/object IW2NIA-3. If no packets are shown the sender has not sent any weather packets the latest 10 day(s).
| Time | Temp. | Humidity | Pressure | Rain* | Wind** | Luminosity | Snow |
|---|---|---|---|---|---|---|---|
| 1777383211 | 20.56° C | 66% | 1014.3 hPa | 0 mm | - | - | - |
| 1777382311 | 20° C | 63% | 1014.5 hPa | 0 mm | - | - | - |
| 1777381427 | 20.56° C | 66% | 1014.6 hPa | 0 mm | - | - | - |
| 1777380523 | 20° C | 66% | 1014.6 hPa | 0 mm | - | - | - |
| 1777379625 | 20° C | 69% | 1014.7 hPa | 0 mm | - | - | - |
| 1777378718 | 19.44° C | 69% | 1014.8 hPa | 0 mm | - | - | - |
| 1777377812 | 19.44° C | 69% | 1014.8 hPa | 0 mm | - | - | - |
| 1777376908 | 19.44° C | 72% | 1014.9 hPa | 0 mm | - | - | - |
| 1777376023 | 19.44° C | 75% | 1015 hPa | 0 mm | - | - | - |
| 1777375120 | 18.89° C | 76% | 1015.1 hPa | 0 mm | - | - | - |
| 1777374212 | 18.89° C | 76% | 1015.2 hPa | 0.25 mm | - | - | - |
| 1777373323 | 18.89° C | 79% | 1015.3 hPa | 0.25 mm | - | - | - |
| 1777372414 | 18.33° C | 80% | 1015.5 hPa | 0.25 mm | - | - | - |
| 1777371509 | 18.33° C | 80% | 1015.5 hPa | 0.25 mm | - | - | - |
| 1777370622 | 17.78° C | 82% | 1015.6 hPa | 0 mm | - | - | - |
| 1777369722 | 17.22° C | 83% | 1015.7 hPa | 0.25 mm | - | - | - |
| 1777368818 | 17.78° C | 83% | 1015.7 hPa | 1.02 mm | - | - | - |
| 1777367912 | 17.78° C | 85% | 1015.6 hPa | 1.02 mm | - | - | - |
| 1777367013 | 17.22° C | 84% | 1015.6 hPa | 1.02 mm | - | - | - |
| 1777366125 | 17.22° C | 80% | 1015.7 hPa | 0.76 mm | - | - | - |
| 1777365217 | 17.78° C | 77% | 1015.6 hPa | 0 mm | - | - | - |
| 1777364310 | 17.78° C | 75% | 1015.4 hPa | 0 mm | - | - | - |
| 1777363408 | 17.78° C | 76% | 1015.3 hPa | 0 mm | - | - | - |
| 1777362525 | 17.22° C | 85% | 1015.3 hPa | 0 mm | - | - | - |
| 1777361616 | 16.67° C | 87% | 1015.1 hPa | 0 mm | - | - | - |
* Rain latest hour (hover to see other rain measurements)
** Current wind speed in m/s (hover to see current wind gust speed)